Back to catalog

SSD

AliveMilitaryLEO
NORAD 13792·PAYLOAD·🇺🇸 United States

Launched Feb 9, 1983 from Vandenberg Space Force Base

Loading…

Next Passes (next 24 hours)

TLE

FreshSource: Space-Track

Epoch: Sep 14, 2026, 04:17 UTC

1 13792U 83008B   26257.17901549  .00000059  00000-0  97348-4 0  9998
2 13792  63.3392 185.4317 0556321 140.9601 223.2988 13.47551932114877

Track SSD in real time with AllMySat

Download on the App Store